Time,TemperatureF,DewpointF,PressureIn,WindDirection,WindDirectionDegrees,WindSpeedMPH,WindSpeedGustMPH,Humidity,HourlyPrecipIn,Conditions,Clouds,dailyrainin,SoftwareType,DateUTC
2013-03-07 00:09:00,33.2,27.0,29.98,ENE,62,8.0,-999.0,79,-99.99,,,0.00,weatherlink.com 1.10,2013-03-07 05:09:00,
2013-03-07 00:24:00,32.8,28.0,29.97,ENE,66,9.0,-999.0,81,-99.99,,,0.00,weatherlink.com 1.10,2013-03-07 05:24:00,
2013-03-07 00:39:00,32.5,28.0,29.97,ENE,58,9.0,-999.0,82,-99.99,,,0.00,weatherlink.com 1.10,2013-03-07 05:39:00,
2013-03-07 00:54:00,32.0,28.0,29.98,NE,44,5.0,-999.0,85,-99.99,,,0.00,weatherlink.com 1.10,2013-03-07 05:54:00,
2013-03-07 01:09:00,31.4,28.0,29.98,NE,47,7.0,-999.0,88,-99.99,,,0.00,weatherlink.com 1.10,2013-03-07 06:09:00,
2013-03-07 01:24:00,31.0,29.0,29.98,ENE,60,13.0,-999.0,90,-99.99,,,0.00,weatherlink.com 1.10,2013-03-07 06:24:00,
2013-03-07 01:39:00,30.9,28.0,29.97,NE,47,5.0,-999.0,90,-99.99,,,0.00,weatherlink.com 1.10,2013-03-07 06:39:00,
2013-03-07 01:54:00,30.8,29.0,29.97,NE,49,11.0,-999.0,91,-99.99,,,0.00,weatherlink.com 1.10,2013-03-07 06:54:00,
2013-03-07 02:09:00,30.9,29.0,29.96,ENE,63,15.0,-999.0,91,-99.99,,,0.00,weatherlink.com 1.10,2013-03-07 07:09:00,
2013-03-07 02:24:00,30.9,28.0,29.96,ENE,58,6.0,-999.0,90,-99.99,,,0.00,weatherlink.com 1.10,2013-03-07 07:24:00,
2013-03-07 02:39:00,30.9,28.0,29.96,NE,37,10.0,-999.0,90,-99.99,,,0.00,weatherlink.com 1.10,2013-03-07 07:39:00,
2013-03-07 02:54:00,31.0,28.0,29.95,NE,35,19.0,-999.0,89,-99.99,,,0.00,weatherlink.com 1.10,2013-03-07 07:54:00,
2013-03-07 03:39:00,31.2,28.0,29.97,ENE,78,14.0,-999.0,86,-99.99,,,0.00,weatherlink.com 1.10,2013-03-07 08:39:00,
2013-03-07 03:54:00,31.2,27.0,29.98,ENE,59,7.0,-999.0,85,-99.99,,,0.00,weatherlink.com 1.10,2013-03-07 08:54:00,
2013-03-07 04:09:00,31.2,27.0,29.98,NE,49,7.0,-999.0,84,-99.99,,,0.00,weatherlink.com 1.10,2013-03-07 09:09:00,
2013-03-07 04:24:00,31.3,27.0,29.98,NE,56,4.0,-999.0,83,-99.99,,,0.00,weatherlink.com 1.10,2013-03-07 09:24:00,
2013-03-07 04:39:00,31.3,27.0,29.98,NE,38,7.0,-999.0,83,-99.99,,,0.00,weatherlink.com 1.10,2013-03-07 09:39:00,
2013-03-07 04:54:00,31.3,26.0,29.98,ENE,60,11.0,-999.0,82,-99.99,,,0.00,weatherlink.com 1.10,2013-03-07 09:54:00,
2013-03-07 05:09:00,31.4,26.0,29.98,NNE,33,8.0,-999.0,81,-99.99,,,0.00,weatherlink.com 1.10,2013-03-07 10:09:00,
2013-03-07 05:24:00,31.5,26.0,29.99,North,8,19.0,-999.0,80,-99.99,,,0.00,weatherlink.com 1.10,2013-03-07 10:24:00,
2013-03-07 05:39:00,31.5,26.0,30.00,NE,35,9.0,-999.0,79,-99.99,,,0.00,weatherlink.com 1.10,2013-03-07 10:39:00,
2013-03-07 05:54:00,31.7,26.0,30.00,NNE,33,10.0,-999.0,78,-99.99,,,0.00,weatherlink.com 1.10,2013-03-07 10:54:00,
2013-03-07 06:09:00,31.5,26.0,30.00,NE,46,12.0,-999.0,79,-99.99,,,0.00,weatherlink.com 1.10,2013-03-07 11:09:00,
2013-03-07 06:24:00,31.0,26.0,30.00,ENE,78,12.0,-999.0,82,-99.99,,,0.00,weatherlink.com 1.10,2013-03-07 11:24:00,
2013-03-07 06:39:00,30.3,27.0,30.00,NE,50,7.0,-999.0,86,-99.99,,,0.00,weatherlink.com 1.10,2013-03-07 11:39:00,
2013-03-07 06:54:00,30.2,27.0,30.02,NE,34,15.0,-999.0,87,-99.99,,,0.00,weatherlink.com 1.10,2013-03-07 11:54:00,
2013-03-07 07:09:00,30.2,27.0,30.02,ENE,62,12.0,-999.0,87,-99.99,,,0.00,weatherlink.com 1.10,2013-03-07 12:09:00,
2013-03-07 07:24:00,30.1,27.0,30.02,NNE,33,11.0,-999.0,87,-99.99,,,0.00,weatherlink.com 1.10,2013-03-07 12:24:00,
2013-03-07 07:39:00,30.5,26.0,30.02,ENE,58,6.0,-999.0,84,-99.99,,,0.00,weatherlink.com 1.10,2013-03-07 12:39:00,
2013-03-07 07:54:00,30.6,26.0,30.02,NE,41,13.0,-999.0,83,-99.99,,,0.00,weatherlink.com 1.10,2013-03-07 12:54:00,
2013-03-07 08:09:00,30.9,26.0,30.02,NE,43,16.0,-999.0,81,-99.99,,,0.00,weatherlink.com 1.10,2013-03-07 13:09:00,
2013-03-07 08:24:00,30.7,26.0,30.02,NE,43,6.0,-999.0,83,-99.99,,,0.00,weatherlink.com 1.10,2013-03-07 13:24:00,
2013-03-07 08:39:00,30.2,27.0,30.02,NE,39,13.0,-999.0,86,-99.99,,,0.00,weatherlink.com 1.10,2013-03-07 13:39:00,
2013-03-07 08:54:00,30.3,27.0,30.02,NE,41,6.0,-999.0,86,-99.99,,,0.00,weatherlink.com 1.10,2013-03-07 13:54:00,
2013-03-07 09:09:00,30.5,27.0,30.02,NE,37,9.0,-999.0,86,-99.99,,,0.00,weatherlink.com 1.10,2013-03-07 14:09:00,
2013-03-07 09:24:00,30.6,27.0,30.02,NNW,341,18.0,-999.0,86,-99.99,,,0.00,weatherlink.com 1.10,2013-03-07 14:24:00,
2013-03-07 09:39:00,31.3,27.0,30.02,NE,37,8.0,-999.0,83,-99.99,,,0.00,weatherlink.com 1.10,2013-03-07 14:39:00,
2013-03-07 09:54:00,31.6,26.0,30.01,NE,41,7.0,-999.0,81,-99.99,,,0.00,weatherlink.com 1.10,2013-03-07 14:54:00,
2013-03-07 10:09:00,32.1,26.0,30.01,NNE,18,9.0,-999.0,79,-99.99,,,0.00,weatherlink.com 1.10,2013-03-07 15:09:00,
2013-03-07 10:24:00,32.7,26.0,30.01,East,83,10.0,-999.0,77,-99.99,,,0.00,weatherlink.com 1.10,2013-03-07 15:24:00,
2013-03-07 10:39:00,33.3,27.0,30.02,North,359,9.0,-999.0,76,-99.99,,,0.00,weatherlink.com 1.10,2013-03-07 15:39:00,
2013-03-07 10:54:00,33.9,26.0,30.02,NE,47,7.0,-999.0,74,-99.99,,,0.00,weatherlink.com 1.10,2013-03-07 15:54:00,
2013-03-07 11:09:00,34.4,27.0,30.02,NE,36,10.0,-999.0,73,-99.99,,,0.00,weatherlink.com 1.10,2013-03-07 16:09:00,
2013-03-07 11:24:00,34.4,26.0,30.02,NNE,28,9.0,-999.0,72,-99.99,,,0.00,weatherlink.com 1.10,2013-03-07 16:24:00,
2013-03-07 11:39:00,34.8,27.0,30.02,ENE,64,4.0,-999.0,72,-99.99,,,0.01,weatherlink.com 1.10,2013-03-07 16:39:00,
2013-03-07 11:54:00,35.0,26.0,30.02,NE,40,13.0,-999.0,71,-99.99,,,0.01,weatherlink.com 1.10,2013-03-07 16:54:00,
2013-03-07 12:09:00,35.3,27.0,30.02,NE,52,15.0,-999.0,71,-99.99,,,0.01,weatherlink.com 1.10,2013-03-07 17:09:00,
2013-03-07 12:24:00,35.5,27.0,30.02,NW,322,10.0,-999.0,71,-99.99,,,0.01,weatherlink.com 1.10,2013-03-07 17:24:00,
2013-03-07 12:39:00,35.5,27.0,30.02,NE,35,7.0,-999.0,71,-99.99,,,0.01,weatherlink.com 1.10,2013-03-07 17:39:00,
2013-03-07 12:54:00,35.7,28.0,30.01,NE,43,11.0,-999.0,73,-99.99,,,0.01,weatherlink.com 1.10,2013-03-07 17:54:00,
2013-03-07 13:09:00,35.4,28.0,30.02,North,359,9.0,-999.0,75,-99.99,,,0.01,weatherlink.com 1.10,2013-03-07 18:09:00,
2013-03-07 13:24:00,34.4,29.0,30.02,NE,38,9.0,-999.0,80,-99.99,,,0.02,weatherlink.com 1.10,2013-03-07 18:24:00,
2013-03-07 13:54:00,34.2,30.0,30.02,ENE,59,5.0,-999.0,83,-99.99,,,0.02,weatherlink.com 1.10,2013-03-07 18:54:00,
2013-03-07 14:09:00,34.4,29.0,30.02,NE,45,4.0,-999.0,82,-99.99,,,0.02,weatherlink.com 1.10,2013-03-07 19:09:00,
2013-03-07 14:24:00,34.2,30.0,30.02,NE,43,9.0,-999.0,84,-99.99,,,0.02,weatherlink.com 1.10,2013-03-07 19:24:00,
2013-03-07 14:39:00,34.0,30.0,30.02,ENE,58,6.0,-999.0,85,-99.99,,,0.02,weatherlink.com 1.10,2013-03-07 19:39:00,
2013-03-07 14:54:00,33.9,31.0,30.03,NNE,29,5.0,-999.0,87,-99.99,,,0.02,weatherlink.com 1.10,2013-03-07 19:54:00,
2013-03-07 15:09:00,33.8,31.0,30.02,NE,40,7.0,-999.0,88,-99.99,,,0.02,weatherlink.com 1.10,2013-03-07 20:09:00,
2013-03-07 15:24:00,33.8,31.0,30.03,NE,46,7.0,-999.0,88,-99.99,,,0.02,weatherlink.com 1.10,2013-03-07 20:24:00,
2013-03-07 15:39:00,34.1,30.0,30.03,NNE,24,6.0,-999.0,86,-99.99,,,0.03,weatherlink.com 1.10,2013-03-07 20:39:00,
2013-03-07 16:09:00,34.5,30.0,30.04,NNE,16,4.0,-999.0,82,-99.99,,,0.03,weatherlink.com 1.10,2013-03-07 21:09:00,
2013-03-07 16:24:00,34.4,30.0,30.04,NE,43,8.0,-999.0,83,-99.99,,,0.03,weatherlink.com 1.10,2013-03-07 21:24:00,
2013-03-07 16:39:00,33.7,30.0,30.04,NE,34,8.0,-999.0,86,-99.99,,,0.03,weatherlink.com 1.10,2013-03-07 21:39:00,
2013-03-07 16:54:00,33.4,30.0,30.04,NE,36,6.0,-999.0,88,-99.99,,,0.03,weatherlink.com 1.10,2013-03-07 21:54:00,
2013-03-07 17:09:00,33.4,30.0,30.05,NNE,25,9.0,-999.0,87,-99.99,,,0.03,weatherlink.com 1.10,2013-03-07 22:09:00,
2013-03-07 17:24:00,33.4,30.0,30.05,NE,36,6.0,-999.0,87,-99.99,,,0.03,weatherlink.com 1.10,2013-03-07 22:24:00,
2013-03-07 17:39:00,33.5,30.0,30.05,NNE,32,9.0,-999.0,87,-99.99,,,0.03,weatherlink.com 1.10,2013-03-07 22:39:00,
2013-03-07 17:54:00,33.4,30.0,30.05,NNE,22,5.0,-999.0,88,-99.99,,,0.03,weatherlink.com 1.10,2013-03-07 22:54:00,
2013-03-07 18:09:00,33.1,30.0,30.05,NNE,27,11.0,-999.0,89,-99.99,,,0.03,weatherlink.com 1.10,2013-03-07 23:09:00,
2013-03-07 18:24:00,32.9,30.0,30.06,NE,50,4.0,-999.0,89,-99.99,,,0.03,weatherlink.com 1.10,2013-03-07 23:24:00,
2013-03-07 18:39:00,32.6,30.0,30.06,NNE,14,2.0,-999.0,90,-99.99,,,0.03,weatherlink.com 1.10,2013-03-07 23:39:00,
2013-03-07 18:54:00,32.4,30.0,30.06,North,359,7.0,-999.0,91,-99.99,,,0.03,weatherlink.com 1.10,2013-03-07 23:54:00,
2013-03-07 19:09:00,32.1,30.0,30.06,NE,45,4.0,-999.0,91,-99.99,,,0.03,weatherlink.com 1.10,2013-03-08 00:09:00,
2013-03-07 19:24:00,31.9,30.0,30.06,North,359,4.0,-999.0,91,-99.99,,,0.03,weatherlink.com 1.10,2013-03-08 00:24:00,
2013-03-07 19:39:00,31.6,29.0,30.06,NNE,31,8.0,-999.0,91,-99.99,,,0.03,weatherlink.com 1.10,2013-03-08 00:39:00,
2013-03-07 19:54:00,31.4,29.0,30.06,North,4,8.0,-999.0,91,-99.99,,,0.03,weatherlink.com 1.10,2013-03-08 00:54:00,
2013-03-07 20:09:00,31.2,29.0,30.06,NNE,14,4.0,-999.0,91,-99.99,,,0.03,weatherlink.com 1.10,2013-03-08 01:09:00,
2013-03-07 20:24:00,31.2,29.0,30.05,NNW,340,7.0,-999.0,91,-99.99,,,0.03,weatherlink.com 1.10,2013-03-08 01:24:00,
2013-03-07 20:39:00,31.1,29.0,30.05,North,349,6.0,-999.0,91,-99.99,,,0.03,weatherlink.com 1.10,2013-03-08 01:39:00,
2013-03-07 20:54:00,31.1,29.0,30.05,NE,44,5.0,-999.0,91,-99.99,,,0.03,weatherlink.com 1.10,2013-03-08 01:54:00,
2013-03-07 21:09:00,31.0,29.0,30.04,North,4,6.0,-999.0,91,-99.99,,,0.03,weatherlink.com 1.10,2013-03-08 02:09:00,
2013-03-07 21:24:00,31.0,29.0,30.04,NE,35,7.0,-999.0,91,-99.99,,,0.03,weatherlink.com 1.10,2013-03-08 02:24:00,
2013-03-07 21:39:00,31.0,29.0,30.03,NNW,328,6.0,-999.0,91,-99.99,,,0.03,weatherlink.com 1.10,2013-03-08 02:39:00,
2013-03-07 21:54:00,31.0,29.0,30.03,NE,37,5.0,-999.0,91,-99.99,,,0.03,weatherlink.com 1.10,2013-03-08 02:54:00,
2013-03-07 22:09:00,31.0,29.0,30.03,NNE,32,5.0,-999.0,91,-99.99,,,0.03,weatherlink.com 1.10,2013-03-08 03:09:00,
2013-03-07 22:24:00,31.0,29.0,30.03,NNW,348,11.0,-999.0,91,-99.99,,,0.03,weatherlink.com 1.10,2013-03-08 03:24:00,
2013-03-07 22:39:00,31.0,29.0,30.03,NW,313,12.0,-999.0,91,-99.99,,,0.03,weatherlink.com 1.10,2013-03-08 03:39:00,
2013-03-07 22:54:00,30.9,29.0,30.02,NE,37,6.0,-999.0,91,-99.99,,,0.03,weatherlink.com 1.10,2013-03-08 03:54:00,
2013-03-07 23:10:00,30.9,29.0,30.02,NNE,31,8.0,-999.0,92,-99.99,,,0.03,weatherlink.com 1.10,2013-03-08 04:10:00,
2013-03-07 23:24:00,30.9,29.0,30.02,NNE,25,6.0,-999.0,92,-99.99,,,0.03,weatherlink.com 1.10,2013-03-08 04:24:00,
2013-03-07 23:39:00,30.9,29.0,30.02,North,354,8.0,-999.0,91,-99.99,,,0.03,weatherlink.com 1.10,2013-03-08 04:39:00,
2013-03-07 23:54:00,30.9,29.0,30.01,NNE,14,7.0,-999.0,91,-99.99,,,0.03,weatherlink.com 1.10,2013-03-08 04:54:00,